This demonstration page uses our WeatherBlox Daily Observations layout. Learn more.

Left ArrowRight Arrow

53.62937, 11.41316

Hourly Observations for November 11, 2020

Temp ( °F °C ) Dew Point ( °F °C ) Humidity (%) Winds ( mph kmh ) Pressure ( in mb ) Visibility ( mi km ) Precip ( " mm )
6:50 am 06:50 Mostly Cloudy 41 5 39 4 93 93 S 5 7 30.30 1026 4 7 N/A
7:20 am 07:20 Cloudy 41 5 39 4 93 93 S 5 7 30.30 1026 4 6 N/A
7:50 am 07:50 Mostly Cloudy with Mist and Fog 39 4 39 4 100 100 S 6 9 30.33 1027 2 4 N/A
8:20 am 08:20 Cloudy with Fog 39 4 39 4 100 100 SSW 3 6 30.33 1027 1 1 N/A
8:50 am 08:50 Cloudy with Mist and Fog 39 4 39 4 100 100 SSE 3 6 30.33 1027 1 2 N/A
9:20 am 09:20 Mostly Cloudy with Mist and Fog 39 4 39 4 100 100 SSE 5 7 30.30 1026 2 4 N/A
9:50 am 09:50 Cloudy with Mist and Fog 41 5 41 5 100 100 SSE 5 7 30.30 1026 2 4 N/A
10:20 am 10:20 Cloudy with Mist and Fog 41 5 41 5 100 100 S 3 6 30.33 1027 2 4 N/A
10:50 am 10:50 Cloudy with Mist and Fog 41 5 41 5 100 100 SSE 5 7 30.30 1026 2 3 N/A
11:20 am 11:20 Mostly Cloudy with Mist and Fog 41 5 41 5 100 100 SSE 5 7 30.30 1026 2 4 N/A
11:50 am 11:50 Cloudy with Mist and Fog 43 6 41 5 93 93 SSE 6 9 30.30 1026 2 3 N/A
12:20 pm 12:20 Cloudy with Mist and Fog 43 6 43 6 100 100 SSE 5 7 30.27 1025 2 3 N/A
12:50 pm 12:50 Cloudy with Mist and Fog 43 6 43 6 100 100 S 5 7 30.27 1025 2 4 N/A
1:20 pm 13:20 Cloudy with Mist and Fog 43 6 43 6 100 100 SSE 5 7 30.27 1025 3 5 N/A
1:50 pm 13:50 Cloudy with Mist and Fog 43 6 43 6 100 100 SSE 5 7 30.24 1024 1 2 N/A
2:20 pm 14:20 Cloudy with Mist and Fog 43 6 43 6 100 100 SSE 5 7 30.24 1024 1 2 N/A
2:50 pm 14:50 Cloudy with Mist and Fog 43 6 43 6 100 100 S 3 6 30.24 1024 1 2 N/A
3:20 pm 15:20 Cloudy with Drizzle 43 6 43 6 100 100 SSE 3 6 30.24 1024 1 1 N/A
3:50 pm 15:50 Cloudy with Mist and Fog 43 6 43 6 100 100 SSE 3 6 30.24 1024 1 2 N/A
4:20 pm 16:20 Cloudy with Mist and Fog 43 6 43 6 100 100 SSE 3 6 30.24 1024 1 2 N/A
4:50 pm 16:50 Mostly Cloudy with Mist and Fog 43 6 43 6 100 100 SE 3 6 30.24 1024 1 2 N/A
5:20 pm 17:20 Cloudy with Mist and Fog 43 6 43 6 100 100 VRB 2 4 30.24 1024 2 3 N/A
5:50 pm 17:50 Cloudy with Mist and Fog 43 6 43 6 100 100 SSE 5 7 30.24 1024 2 3 N/A
6:20 pm 18:20 Cloudy with Mist and Fog 43 6 43 6 100 100 SSE 3 6 30.24 1024 2 3 N/A
6:50 pm 18:50 Cloudy with Mist and Fog 43 6 43 6 100 100 SE 5 7 30.24 1024 2 3 N/A
7:20 pm 19:20 Cloudy with Mist and Fog 43 6 43 6 100 100 SE 5 7 30.21 1023 2 3 N/A
7:50 pm 19:50 Cloudy with Mist and Fog 43 6 43 6 100 100 SE 3 6 30.21 1023 1 2 N/A
8:20 pm 20:20 Cloudy with Mist and Fog 43 6 43 6 100 100 VRB 2 4 30.21 1023 2 3 N/A
8:50 pm 20:50 Cloudy with Mist and Fog 43 6 43 6 100 100 SSE 3 6 30.21 1023 2 3 N/A
9:20 pm 21:20 Cloudy with Mist and Fog 43 6 43 6 100 100 SSE 3 6 30.21 1023 2 3 N/A
9:50 pm 21:50 Cloudy with Mist and Fog 43 6 43 6 100 100 SSE 3 6 30.21 1023 2 3 N/A

Powered by AerisWeather